Location: Little Baddow
(51.7333°N, 0.5667°E)
Time: 14:15:15
(UTC+00:00)

COSMOS 2428 - Visible Passes

Search period start: 14 February 2026 00:00
Search period end: 24 February 2026 00:00
Orbit: 844 x 855 km, 70.9° (Epoch: 13 February)

Date Brightness Start Highest point End Pass type
(mag) Time Alt. Az. Time Alt. Az. Time Alt. Az.
14 Feb 4.4 18:14:33 10° NW 18:19:47 37° WSW 18:25:00 10° S visible
15 Feb 4.4 18:01:47 10° NW 18:07:01 38° WSW 18:12:14 10° S visible
16 Feb 4.5 17:49:00 10° NW 17:54:15 38° WSW 17:59:29 10° S visible
20 Feb 4.9 06:25:08 10° SSE 06:30:04 31° ESE 06:35:03 10° NE visible
21 Feb 4.9 06:12:22 10° SSE 06:17:18 31° ESE 06:22:16 10° NE visible
22 Feb 4.9 05:59:36 10° SSE 06:04:32 31° ESE 06:09:29 10° NE visible
23 Feb 4.8 05:46:50 10° SSE 05:51:45 31° ESE 05:56:41 10° NE visible
